This demonstration page uses our WeatherBlox Daily Observations layout. Learn more.

Left ArrowRight Arrow

Hourly Observations for April 21, 2020

Temp ( °F °C ) Dew Point ( °F °C ) Humidity (%) Winds ( mph kmh ) Pressure ( in mb ) Visibility ( mi km ) Precip ( " mm )
12:15 am 00:15 Clear 50 10 43 6 76 76 SSW 6 9 29.72 1006 10 16.0934 0 0
12:35 am 00:35 Clear 50 10 45 7 82 82 SSW 6 9 29.72 1006 10 16.0934 0 0
12:55 am 00:55 Clear 50 10 45 7 82 82 SSW 6 9 29.72 1006 10 16.0934 0 0
1:15 am 01:15 Clear 50 10 45 7 82 82 SSW 6 9 29.71 1006 10 16.0934 0 0
1:35 am 01:35 Clear 46 8 43 6 87 87 SSW 3 6 29.72 1006 10 16.0934 0 0
1:55 am 01:55 Clear 48 9 45 7 87 87 SSW 7 11 29.71 1006 10 16.0934 0 0
2:15 am 02:15 Partly Cloudy 46 8 45 7 93 93 SSW 5 7 29.7 1006 10 16.0934 0 0
2:35 am 02:35 Partly Cloudy 46 8 45 7 93 93 SSW 3 6 29.7 1006 10 16.0934 0 0
2:55 am 02:55 Partly Cloudy 45 7 43 6 93 93 SSW 3 6 29.69 1005 10 16.0934 0 0
3:15 am 03:15 Mostly Cloudy 45 7 43 6 93 93 Calm 29.68 1005 10 16.0934 0 0
3:35 am 03:35 Partly Cloudy 45 7 45 7 100 100 S 6 9 29.67 1005 10 16.0934 0 0
3:55 am 03:55 Clear 45 7 43 6 93 93 SSW 6 9 29.67 1005 10 16.0934 0 0
4:15 am 04:15 Clear 43 6 41 5 93 93 S 6 9 29.67 1005 10 16.0934 0 0
4:35 am 04:35 Mostly Cloudy 43 6 43 6 100 100 SSW 5 7 29.66 1004 10 16.0934 0 0
4:55 am 04:55 Cloudy 43 6 43 6 100 100 SSW 5 7 29.66 1004 10 16.0934 0 0
5:15 am 05:15 Mostly Cloudy 43 6 43 6 100 100 SSW 5 7 29.65 1004 10 16.0934 0 0
5:35 am 05:35 Partly Cloudy 43 6 43 6 100 100 SSW 5 7 29.65 1004 10 16.0934 0 0
5:55 am 05:55 Clear 43 6 43 6 100 100 SSW 7 11 29.64 1004 10 16.0934 0 0
6:15 am 06:15 Clear 43 6 43 6 100 100 SSW 7 11 29.64 1004 10 16.0934 0 0
6:35 am 06:35 Sunny 41 5 41 5 100 100 SSW 6 9 29.64 1004 10 16.0934 0 0
6:55 am 06:55 Sunny 43 6 43 6 100 100 SSW 5 7 29.64 1004 10 16.0934 0 0
7:15 am 07:15 Sunny 43 6 43 6 100 100 S 5 7 29.63 1003 10 16.0934 0 0
7:35 am 07:35 Sunny 43 6 43 6 100 100 S 6 9 29.62 1003 10 16.0934 0 0
7:55 am 07:55 Partly Cloudy 45 7 45 7 100 100 SSW 6 9 29.62 1003 10 16.0934 0 0
8:15 am 08:15 Mostly Cloudy 46 8 45 7 93 93 SSW 3 6 29.62 1003 10 16.0934 0 0
8:35 am 08:35 Cloudy 48 9 45 7 87 87 Calm 29.61 1003 10 16.0934 0 0
8:55 am 08:55 Cloudy 50 10 45 7 82 82 S 3 6 29.61 1003 10 16.0934 0 0
9:15 am 09:15 Partly Cloudy 52 11 46 8 82 82 Calm 29.59 1002 10 16.0934 0 0
9:35 am 09:35 Mostly Cloudy 54 12 46 8 77 77 Calm 29.58 1002 10 16.0934 0 0
9:55 am 09:55 Cloudy 59 15 46 8 63 63 WSW 5 7 29.58 1002 10 16.0934 0 0
10:15 am 10:15 Cloudy 59 15 43 6 55 55 WSW 8 13 29.58 1002 10 16.0934 0 0
10:35 am 10:35 Cloudy 59 15 43 6 55 55 WSW 7 11 29.58 1002 10 16.0934 0 0
10:55 am 10:55 Cloudy 61 16 43 6 52 52 WSW 9 15 29.57 1001 10 16.0934 0 0
11:15 am 11:15 Mostly Cloudy 63 17 43 6 49 49 WSW 10 17 29.55 1001 10 16.0934 0 0
11:35 am 11:35 Partly Cloudy 64 18 41 5 43 43 SSW 16 26 29.52 1000 10 16.0934 0 0
11:55 am 11:55 Partly Cloudy 66 19 41 5 40 40 WSW 15 24 29.52 1000 10 16.0934 0 0
12:15 pm 12:15 Cloudy 63 17 41 5 45 45 WSW 15 24 29.53 1000 10 16.0934 0 0
12:35 pm 12:35 Cloudy 63 17 43 6 49 49 W 15 24 29.53 1000 10 16.0934 0 0
12:55 pm 12:55 Cloudy 64 18 41 5 43 43 WNW 18 30 29.52 1000 10 16.0934 0 0
1:15 pm 13:15 Cloudy 64 18 41 5 43 43 WNW 15 24 29.52 1000 10 16.0934 0 0
1:35 pm 13:35 Mostly Cloudy 64 18 41 5 43 43 NNW 38 61 29.54 1000 10 16.0934 0 0
1:55 pm 13:55 Mostly Cloudy 57 14 43 6 59 59 NNW 23 37 29.57 1001 10 16.0934 0 0
2:15 pm 14:15 Mostly Cloudy 55 13 41 5 59 59 NW 23 37 29.58 1002 10 16.0934 0 0
2:35 pm 14:35 Cloudy 54 12 41 5 63 63 WNW 20 31 29.59 1002 10 16.0934 0 0
2:55 pm 14:55 Cloudy 54 12 41 5 63 63 W 15 24 29.59 1002 10 16.0934 0 0
3:15 pm 15:15 Cloudy 54 12 41 5 63 63 W 13 20 29.58 1002 10 16.0934 0 0
3:35 pm 15:35 Partly Cloudy 59 15 41 5 51 51 W 13 20 29.57 1001 10 16.0934 0 0
3:55 pm 15:55 Partly Cloudy 61 16 41 5 48 48 WNW 14 22 29.57 1001 10 16.0934 0 0
4:15 pm 16:15 Mostly Cloudy 63 17 39 4 42 42 WNW 18 30 29.56 1001 10 16.0934 0 0
4:35 pm 16:35 Mostly Cloudy 61 16 37 3 42 42 WNW 18 30 29.56 1001 10 16.0934 0 0
4:55 pm 16:55 Partly Cloudy 63 17 36 2 37 37 NW 26 43 29.56 1001 10 16.0934 0 0
5:15 pm 17:15 Sunny 63 17 32 0 32 32 NW 23 37 29.57 1001 10 16.0934 0 0
5:35 pm 17:35 Sunny 63 17 30 -1 30 30 NW 25 41 29.59 1002 10 16.0934 0 0
5:55 pm 17:55 Sunny 61 16 30 -1 31 31 NW 28 44 29.61 1003 10 16.0934 0 0
6:15 pm 18:15 Sunny 61 16 28 -2 29 29 NW 30 48 29.62 1003 10 16.0934 0 0
6:35 pm 18:35 Sunny 59 15 28 -2 31 31 NW 24 39 29.63 1003 10 16.0934 0 0
6:55 pm 18:55 Sunny 59 15 28 -2 31 31 NW 29 46 29.65 1004 10 16.0934 0 0
7:15 pm 19:15 Sunny 57 14 27 -3 31 31 NW 25 41 29.67 1005 10 16.0934 0 0
7:35 pm 19:35 Sunny 55 13 27 -3 33 33 NW 23 37 29.69 1005 10 16.0934 0 0
7:55 pm 19:55 Clear 54 12 25 -4 33 33 N 18 30 29.72 1007 10 16.0934 0 0
8:15 pm 20:15 Clear 50 10 28 -2 43 43 N 16 26 29.76 1008 10 16.0934 0 0
8:35 pm 20:35 Clear 50 10 28 -2 43 43 N 14 22 29.78 1008 10 16.0934 0 0
8:55 pm 20:55 Clear 48 9 27 -3 43 43 N 15 24 29.79 1009 10 16.0934 0 0
9:15 pm 21:15 Clear 46 8 27 -3 46 46 NNW 17 28 29.81 1009 10 16.0934 0 0
9:35 pm 21:35 Clear 46 8 25 -4 43 43 NNW 17 28 29.82 1010 10 16.0934 0 0
9:55 pm 21:55 Clear 46 8 25 -4 43 43 N 12 19 29.83 1010 10 16.0934 0 0
10:15 pm 22:15 Clear 45 7 25 -4 46 46 NNW 15 24 29.84 1011 10 16.0934 0 0
10:35 pm 22:35 Clear 45 7 25 -4 46 46 NNW 14 22 29.86 1011 10 16.0934 0 0
10:55 pm 22:55 Clear 45 7 25 -4 46 46 NNW 13 20 29.86 1011 10 16.0934 0 0
11:15 pm 23:15 Clear 45 7 23 -5 42 42 NNW 16 26 29.87 1012 10 16.0934 0 0
11:35 pm 23:35 Clear 45 7 23 -5 42 42 NNW 12 19 29.88 1012 10 16.0934 0 0
11:55 pm 23:55 Clear 45 7 23 -5 42 42 NNW 13 20 29.89 1012 10 16.0934 0 0

Powered by AerisWeather